Location: Newark
(37.8333°N, 119.5000°W)
Time: 20:55:53
(UTC+00:00)

Tiros 1 despin weight - Pass Details

Date: 27 August 2019
Orbit: 593 x 643 km, 48.2° (Epoch: 22 October)

Event Time Altitude Azimuth Distance (km) Brightness Sun altitude
Rises 08:04:05 0° 289° (WNW) 2,836 - -42.0°
Reaches altitude 10° 08:06:48 10° 305° (NW) 1,941 - -42.0°
Maximum altitude 08:10:16 22° 356° (N) 1,349 - -42.0°
Drops below altitude 10° 08:13:45 10° 47° (NE) 1,963 - -41.9°
Sets 08:16:32 0° 63° (ENE) 2,878 - -41.9°
